Flag for Norway Weather past 2 weeks in Fauske, Norway

Now
39 °F

Partly sunny.


Feels Like: 28 °F
Forecast: 36 / 44 °F
Wind: 24 mph from Southeast

Location: Bodo Vi

Current Time: Apr 26, 2015 at 12:51:42 PM

Latest Report: Apr 26, 2015 at 12:20 PM


Visibility: N/A

Pressure: 29.50 "Hg

Humidity: 56%

Dew point: 25 °F

Location of FauskeLocation

Historic Weather in Fauske — Graph

°F

Fauske temperature yesterday

Maximum temperature yesterday: 43 °F (at 10:50 AM)
Minimum temperature yesterday: 36 °F (at 12:50 AM)
Average temperature yesterday: 40 °F

Past Weeks' High & Low Weather Summary

 TemperatureHumidityPressure
High46 °F (Apr 11, 10:50 PM)100% (Apr 12, 10:50 AM)30.30 "Hg (Apr 12, 10:50 AM)
Low34 °F (Apr 14, 1:50 AM)49% (Apr 11, 12:50 PM)29.18 "Hg (Apr 23, 7:50 AM)
Average40 °F81%29.75 "Hg
* Reported Apr 11 11:20 AM — Apr 26 11:20 AM, Fauske, Weather by CustomWeather, © 2015

Note: Actual official high and low records may vary slightly from our data, if they occured in-between our weather recording intervals... More about our weather records

Advertising

Fauske weather history for previous 24 hours

 ConditionsComfort  
Time TempWeatherWind HumidityBarometerVisibility
11:20 AM
Sun, Apr 26
41 °FPartly sunny.40 mph53%29.47 "HgN/A
10:50 AM39 °FPartly sunny.39 mph56%29.47 "HgN/A
10:20 AM41 °FPartly sunny.30 mph53%29.50 "HgN/A
9:50 AM39 °FPartly sunny.28 mph56%29.47 "HgN/A
9:20 AM39 °FPartly sunny.28 mph56%29.50 "HgN/A
8:50 AM39 °FPartly sunny.33 mph56%29.50 "HgN/A
8:20 AM39 °FPartly sunny.33 mph56%29.50 "HgN/A
7:50 AM39 °FPartly sunny.28 mph56%29.50 "HgN/A
7:20 AM39 °FBroken clouds.31 mph61%29.50 "HgN/A
6:50 AM39 °FPartly sunny.24 mph65%29.50 "HgN/A
6:20 AM39 °FPartly sunny.32 mph61%29.50 "HgN/A
5:50 AM39 °FPartly sunny.37 mph56%29.50 "HgN/A
5:20 AM37 °FPassing clouds.35 mph65%29.47 "HgN/A
4:50 AM37 °FPassing clouds.41 mph60%29.47 "HgN/A
3:50 AM37 °FClear.35 mph65%29.50 "Hg10 mi
2:50 AM39 °FClear.38 mph61%29.50 "Hg10 mi
1:50 AM39 °FClear.33 mph56%29.53 "Hg10 mi
12:50 AM39 °FPartly cloudy.33 mph52%29.56 "HgN/A
11:50 PM
Sat, Apr 25
39 °FPartly cloudy.32 mph52%29.59 "HgN/A
10:50 PM39 °FPassing clouds.25 mph56%29.59 "HgN/A
10:20 PM39 °FPartly sunny.21 mph56%29.62 "HgN/A
9:50 PM39 °FPartly sunny.24 mph56%29.62 "HgN/A
9:20 PM41 °FPartly sunny.28 mph49%29.62 "HgN/A
8:50 PM41 °FPartly sunny.30 mph49%29.62 "HgN/A
8:20 PM41 °FPartly sunny.30 mph49%29.62 "HgN/A
7:50 PM41 °FPartly sunny.31 mph53%29.62 "HgN/A
7:20 PM41 °FPartly sunny.30 mph49%29.62 "HgN/A
6:50 PM41 °FPartly sunny.28 mph49%29.65 "HgN/A
6:20 PM41 °FPartly sunny.23 mph53%29.65 "HgN/A
5:50 PM41 °FScattered clouds.26 mph49%29.68 "HgN/A
5:20 PM41 °FScattered clouds.29 mph49%29.65 "HgN/A
4:50 PM41 °FPassing clouds.29 mph57%29.68 "HgN/A
4:20 PM41 °FPassing clouds.29 mph57%29.68 "HgN/A
3:50 PM41 °FPassing clouds.28 mph53%29.68 "HgN/A
3:20 PM43 °FPassing clouds.24 mph53%29.68 "HgN/A
2:50 PM41 °FPassing clouds.29 mph53%29.71 "HgN/A
2:20 PM41 °FPassing clouds.29 mph57%29.71 "HgN/A
1:50 PM41 °FPassing clouds.24 mph53%29.71 "HgN/A
1:20 PM41 °FPassing clouds.28 mph57%29.71 "HgN/A
12:50 PM43 °FPassing clouds.25 mph49%29.71 "HgN/A
12:20 PM43 °FPassing clouds.25 mph57%29.71 "HgN/A
Weather by CustomWeather, © 2015

See weather overviewHow to use our weather pages